Change the Weather History Date:

Sunday, December 9, 2012

  Actual Average Record
Temperature  
Mean Temperature 42 °F 39 °F  
Max Temperature 55 °F 52 °F 72 °F (1950)
Min Temperature 27 °F 26 °F 2 °F (1978)
Degree Days  
Heating Degree Days 24    
Month to date heating degree days  
Since 1 July heating degree days  
Cooling Degree Days 0    
Month to date cooling degree days  
Year to date cooling degree days  
Moisture  
Dew Point 13 °F    
Average Humidity 37    
Maximum Humidity 59    
Minimum Humidity 19    
Precipitation  
Precipitation 0.00 in 0.03 in 1.62 in (1965)
Month to date precipitation 0.27  
Year to date precipitation 13.28  
Sea Level Pressure  
Sea Level Pressure 30.00 in    
Wind  
Wind Speed 9 mph (NNW)    
Max Wind Speed 25 mph    
Max Gust Speed 33 mph    
Visibility 10 miles    
Events      
T = Trace of Precipitation, MM = Missing Value Source: NWS Daily Summary

Daily Weather History Graph

Daily Weather History Graph

Search for Another Location

Airport or City:

Trip Planner

Search our weather history database for the weather conditions in past years. The results will help you decide how hot, cold, wet, or windy it might be!

Date:

Astronomy

Dec. 09, 2012 Rise Set
Actual Time 7:25 AM MST 5:19 PM MST
Civil Twilight 6:57 AM MST 5:46 PM MST
Nautical Twilight 6:26 AM MST 6:18 PM MST
Astronomical Twilight 5:55 AM MST 6:49 PM MST
Moon 3:10 AM MST (12/9) 2:22 PM MST (12/9)
Length of Visible Light 10h 49m
Length of Day
9h 53m
Waning Crescent, 18% of the Moon is Illuminated
Dec 9
Waning Crescent
Dec 13
New
Dec 19
First Quarter
Dec 28
Full
Jan 4
Last Quarter

Hourly Weather History & Observations

Time (MST) Temp. Windchill Dew Point Humidity Pressure Visibility Wind Dir Wind Speed Gust Speed Precip Events Conditions
12:53 AM 33.1 °F 27.7 °F 19.0 °F 56% 29.92 in 10.0 mi SSW 5.8 mph - N/A   Clear
1:53 AM 32.0 °F 25.6 °F 19.0 °F 59% 29.92 in 10.0 mi South 6.9 mph - N/A   Clear
2:53 AM 32.0 °F 25.6 °F 19.0 °F 59% 29.91 in 10.0 mi South 6.9 mph - N/A   Clear
3:53 AM 32.0 °F 25.6 °F 19.0 °F 59% 29.90 in 10.0 mi South 6.9 mph - N/A   Clear
4:53 AM 30.9 °F 25.2 °F 18.0 °F 59% 29.91 in 10.0 mi SSW 5.8 mph - N/A   Clear
5:53 AM 30.9 °F 27.5 °F 17.1 °F 57% 29.94 in 10.0 mi NE 3.5 mph - N/A   Clear
6:53 AM 32.0 °F 28.7 °F 18.0 °F 56% 29.94 in 10.0 mi SW 3.5 mph - N/A   Clear
7:53 AM 36.0 °F 29.6 °F 17.1 °F 46% 29.95 in 10.0 mi South 8.1 mph - N/A   Clear
8:53 AM 44.1 °F 42.5 °F 19.0 °F 37% 29.93 in 10.0 mi SSW 3.5 mph - N/A   Clear
9:53 AM 46.0 °F 44.8 °F 18.0 °F 33% 29.98 in 10.0 mi North 3.5 mph - N/A   Clear
10:53 AM 48.9 °F - 17.1 °F 28% 30.00 in 10.0 mi North 10.4 mph - N/A   Clear
11:53 AM 53.1 °F - 16.0 °F 23% 29.99 in 10.0 mi NNW 12.7 mph 17.3 mph N/A   Clear
12:53 PM 54.0 °F - 16.0 °F 22% 29.96 in 9.0 mi NNW 19.6 mph 27.6 mph N/A   Clear
1:53 PM 55.0 °F - 15.1 °F 21% 29.95 in 10.0 mi NNW 16.1 mph 28.8 mph N/A   Clear
2:53 PM 54.0 °F - 14.0 °F 21% 29.96 in 9.0 mi NNW 20.7 mph 33.4 mph N/A   Clear
3:53 PM 50.0 °F - 14.0 °F 24% 30.01 in 10.0 mi North 16.1 mph - N/A   Clear
4:53 PM 48.0 °F - 7.0 °F 19% 30.03 in 10.0 mi NNW 24.2 mph 33.4 mph N/A   Clear
5:53 PM 42.1 °F 32.1 °F 9.0 °F 26% 30.08 in 10.0 mi North 25.3 mph - N/A   Clear
6:53 PM 39.0 °F 29.9 °F 3.9 °F 23% 30.12 in 10.0 mi North 17.3 mph - N/A   Clear
7:53 PM 36.0 °F 27.1 °F 5.0 °F 27% 30.14 in 10.0 mi North 13.8 mph - N/A   Clear
8:53 PM 33.1 °F 24.9 °F 5.0 °F 31% 30.13 in 10.0 mi NNW 10.4 mph - N/A   Clear
9:53 PM 30.9 °F 24.3 °F 3.9 °F 32% 30.14 in 10.0 mi North 6.9 mph - N/A   Clear
10:53 PM 28.0 °F 20.0 °F 3.9 °F 36% 30.15 in 10.0 mi NNW 8.1 mph - N/A   Clear
11:53 PM 27.0 °F - 3.9 °F 37% 30.14 in 10.0 mi Calm Calm - N/A   Clear